Weather Roundup
Issued by NWS Chicago, IL

Home | Current Version | Previous Version | Graphics & Text | Print | Product List | Glossary On
Versions: 1 2 3 4 5 6 7 8 9 10 11 12 13 14 15 16 17 18 19 20 21 22 23 24 25 26 27 28 29 30 31 32 33 34 35 36 37 38 39 40 41 42 43 44 45 46 47 48 49 50
686
NZUS59 KLOT 232304
HRRLOT

CHICAGO AREA WEATHER ROUNDUP
NATIONAL WEATHER SERVICE CHICAGO/ROMEOVILLE IL
600 PM CDT TUE MAY 23 2017

NOTE: "FAIR" INDICATES FEW OR NO CLOUDS BELOW 12,000 FEET WITH NO
SIGNIFICANT WEATHER AND/OR OBSTRUCTIONS TO VISIBILITY.

* THESE STATIONS ARE NOT UNDER NWS QUALITY CONTROL. THEY ALSO MAY NOT
  REPORT WEATHER SUCH AS PRECIPITATION OR FOG.

ILZ005-006-012>014-019>023-240000-
NORTHEAST ILLINOIS

CITY           SKY/WX    TMP DP  RH WIND       PRES   REMARKS
OHARE          LGT RAIN  59  55  87 SE10      29.70F FOG
MIDWAY         CLOUDY    58  55  90 NE5       29.70F
AURORA         LGT RAIN  59  57  93 NW10      29.71F
LANSING*       RAIN      57  56  95 NW6       29.71F
JOLIET*        LGT RAIN  60  57  90 SE5       29.70F
WAUKEGAN       LGT RAIN  56  54  93 SE7       29.71F FOG
DUPAGE AIRPORT LGT RAIN  59  58  96 NE5       29.70F FOG
WHEELING       LGT RAIN  57  57 100 E8        29.72F
KANKAKEE*      CLOUDY    58  53  85 CALM      29.70F
MORRIS*        RAIN      59  57  91 CALM      29.69F
LEWIS AIRPORT* CLOUDY    58  57  97 SE8       29.70F
NORTHERLY ISL    N/A     57  53  86 N3          N/A
$$

WIZ051-052-058>065-066-070>072-240000-
SOUTHEAST WISCONSIN

CITY           SKY/WX    TMP DP  RH WIND       PRES   REMARKS
MILWAUKEE      CLOUDY    59  55  87 S10       29.72R
KENOSHA*       LGT RAIN  59  55  87 SE8       29.72S
RACINE*        CLOUDY    56  52  86 S10       29.73F
WAUKESHA       RAIN      54  54 100 SE5       29.73S
$$

INZ001>003-010>013-019-020-240000-
NORTHWEST INDIANA

CITY           SKY/WX    TMP DP  RH WIND       PRES   REMARKS
GARY*          CLOUDY    59  54  82 N5        29.72F
MICHIGAN CITY* NOT AVBL
RENSSELAER*    NOT AVBL
VALPARAISO     CLOUDY    65  57  75 E3        29.70F
$$

LMZ740>746-240000-
SOUTHERN LAKE MICHIGAN

STATION/POSITION TIME  SKY/WX   TEMP WIND        PRES    VSBY
                                AIR  DIR/SP/G
                 (UTC)          (F)  (DEG/KT/KT) (MB)    (MI)
HARRISON CRIB    2240            56  350/  2/  3   N/A
BURNHAM HARBOR   2300            56  340/  2/  7   N/A
CALUMET HARBOR   2230            56  270/  3/  5 1006.4F
BURNS HARBOR     2240            56   50/  4/  7 1006.8S
MICHIGAN CITY    2240            62   90/  4/  5   N/A
$$

ABBREVIATIONS USED IN REMARKS
   TC - TEMPERATURE IN CELSIUS
  WCI - WIND CHILL INDEX
   HX - HEAT INDEX
  VSB - VISIBILITY
$$




USA.gov is the U.S. government's official web portal to all federal, state and local government web resources and services.